User: anonymous   Login
Location: Unspecified
(0.0000°N, 0.0000°E)
Time: 18:09:28
(UTC+00:00)
Language:

STARLINK-31316 - Orbit

View from above orbital plane
View from above orbital plane
View from above satellite
View from above satellite

Ground track
Ground track

The orbit is defined by the following mean orbital elements,

1 59090U          26145.13024480 +.00000000 +00000-0 +37854-4 0 00007
2 59090  43.0029 192.1917 0001639 262.2771  97.7895 15.27577980    05
Epoch (UTC): 25 May 2026 03:07:33
Eccentricity: 0.0001639
inclination: 43.0029°
perigee height: 482 km
apogee height: 484 km
right ascension of ascending node: 192.1917°
argument of perigee: 262.2771°
revolutions per day: 15.27577980
mean anomaly at epoch: 97.7895°

The dashed part of the orbit path shows where the satellite is in the earth's shadow,  

DLR